Date String (YYYY-MM-DD hh:mm:ss) UTC,Instrument flags,absolute air pressure of the measurement (hPa),sample flow rate (lpm),inlet stack bypass flow (lpm),air temperature of the measurement (°C),ambient temperature measured by the external sensor (°C),aerosol sample conditioner tube jacket temperature (°C),OPC LED temperature (°C),internal box temperature (°C),relative humidity of the measurement (%),span deviation,mass concentration of particles derived from Lorenz-Mie calculation of OPC scattering (μg/m³),mass concentration of particles derived from Lorenz-Mie calculation of OPC scattering (μg/m³),mass concentration of particles derived from Lorenz-Mie calculation of OPC scattering (μg/m³)
DateTimeUTC,F1_M11,P_M11,Q1_M11,Q2_M11,T1_M11,T2_M11,T3_M11,T4_M11,T5_M11,U1_M11,ZSPAN_M11,X0_M11,X2_M11,X1_M11
2024-03-21 22:00:00,SystemResetWarning,0823.6,5.02,000.00,026.5,025.9,000.0,034.9,028.3,10.1,0000.0,0006.17,0002.89,0001.81
2024-03-21 22:01:00,SystemResetWarning,0823.6,4.99,000.00,026.5,025.9,000.0,034.9,028.3,09.8,0000.0,0006.41,0002.94,0001.79
2024-03-21 22:02:00,SystemResetWarning,0823.5,4.99,000.00,026.5,025.9,000.0,034.9,028.3,10.1,0000.0,0006.67,0003.02,0001.77
2024-03-21 22:03:00,SystemResetWarning,0823.6,5.01,000.00,026.5,025.6,000.0,035.0,028.2,09.7,0000.0,0006.83,0003.07,0001.76
2024-03-21 22:04:00,SystemResetWarning,0823.6,5.00,000.00,026.5,025.5,000.0,035.1,028.1,09.9,0000.0,0006.72,0003.04,0001.77
2024-03-21 22:05:00,SystemResetWarning,0823.6,5.00,000.00,026.5,025.4,000.0,035.1,028.1,09.8,0000.0,0006.75,0003.04,0001.77
2024-03-21 22:06:00,SystemResetWarning,0823.5,5.00,000.00,026.4,024.7,000.0,035.1,027.7,10.0,0000.0,0007.23,0003.06,0001.76
2024-03-21 22:07:00,SystemResetWarning,0823.5,5.00,000.00,026.0,022.7,000.0,035.0,026.5,10.3,0000.0,0007.20,0003.13,0001.77
2024-03-21 22:08:00,SystemResetWarning,0823.4,5.01,000.00,025.5,021.4,000.0,034.9,025.8,10.2,0000.0,0007.26,0003.12,0001.75
2024-03-21 22:09:00,SystemResetWarning,0823.4,5.02,000.00,025.3,021.8,000.0,034.7,025.8,10.3,0000.0,0007.60,0003.06,0001.74
2024-03-21 22:10:00,SystemResetWarning,0823.4,4.99,000.00,025.2,022.3,000.0,034.5,026.2,10.3,0000.0,0007.55,0003.06,0001.74
2024-03-21 22:11:00,SystemResetWarning,0823.4,5.00,000.00,025.2,022.7,000.0,034.3,026.4,11.0,0000.0,0007.25,0003.04,0001.75
2024-03-21 22:12:00,SystemResetWarning,0823.4,5.01,000.00,025.2,023.1,000.0,034.2,026.6,11.0,0000.0,0007.25,0003.03,0001.77
2024-03-21 22:13:00,SystemResetWarning,0823.5,4.99,000.00,025.2,023.5,000.0,034.1,026.7,10.9,0000.0,0007.00,0002.93,0001.77
2024-03-21 22:14:00,SystemResetWarning,0823.5,5.00,000.00,025.2,023.7,000.0,034.0,026.8,10.9,0000.0,0007.18,0002.92,0001.78
2024-03-21 22:15:00,SystemResetWarning,0823.4,5.01,000.00,025.2,024.0,000.0,034.0,026.9,11.1,0000.0,0007.33,0002.94,0001.78
2024-03-21 22:16:00,SystemResetWarning,0823.5,4.99,000.00,025.3,024.2,000.0,033.9,027.0,11.1,0000.0,0007.91,0002.94,0001.76
2024-03-21 22:17:00,SystemResetWarning,0823.5,4.99,000.00,025.3,024.3,000.0,033.9,027.1,10.7,0000.0,0007.88,0002.94,0001.76
2024-03-21 22:18:00,SystemResetWarning,0823.5,5.01,000.00,025.4,024.5,000.0,033.9,027.2,10.7,0000.0,0007.65,0002.90,0001.76
2024-03-21 22:19:00,SystemResetWarning,0823.4,5.01,000.00,025.4,024.6,000.0,033.9,027.2,11.0,0000.0,0007.93,0002.92,0001.77
2024-03-21 22:20:00,SystemResetWarning,0823.5,5.00,000.00,025.4,024.7,000.0,033.9,027.3,10.9,0000.0,0007.89,0003.02,0001.79
2024-03-21 22:21:00,SystemResetWarning,0823.6,4.98,000.00,025.5,024.8,000.0,033.9,027.3,11.1,0000.0,0007.91,0003.06,0001.79
2024-03-21 22:22:00,SystemResetWarning,0823.5,5.00,000.00,025.5,024.8,000.0,033.9,027.4,11.3,0000.0,0007.92,0003.05,0001.77
2024-03-21 22:23:00,SystemResetWarning,0823.5,5.01,000.00,025.6,024.9,000.0,033.9,027.4,11.1,0000.0,0007.89,0003.07,0001.77
2024-03-21 22:24:00,SystemResetWarning,0823.6,5.00,000.00,025.6,025.0,000.0,033.9,027.5,10.6,0000.0,0007.91,0003.07,0001.76
2024-03-21 22:25:00,SystemResetWarning,0823.6,5.01,000.00,025.6,025.0,000.0,034.0,027.5,11.6,0000.0,0007.81,0003.00,0001.74
2024-03-21 22:26:00,SystemResetWarning,0823.6,4.99,000.00,025.7,025.1,000.0,034.0,027.6,11.2,0000.0,0007.58,0002.92,0001.74
2024-03-21 22:27:00,SystemResetWarning,0823.5,5.00,000.00,025.7,025.1,000.0,034.0,027.6,11.0,0000.0,0006.99,0002.94,0001.75
2024-03-21 22:28:00,SystemResetWarning,0823.6,4.99,000.00,025.7,025.2,000.0,034.0,027.6,10.2,0000.0,0006.91,0002.94,0001.74
2024-03-21 22:29:00,SystemResetWarning,0823.5,4.99,000.00,025.8,025.2,000.0,034.0,027.7,10.3,0000.0,0007.36,0002.95,0001.73
2024-03-21 22:30:00,SystemResetWarning,0823.6,5.02,000.00,025.8,025.3,000.0,034.1,027.7,10.2,0000.0,0006.89,0002.91,0001.72
2024-03-21 22:31:00,SystemResetWarning,0823.6,4.97,000.00,025.8,025.3,000.0,034.1,027.7,10.3,0000.0,0006.58,0002.91,0001.72
2024-03-21 22:32:00,SystemResetWarning,0823.6,5.01,000.00,025.9,025.3,000.0,034.1,027.8,10.5,0000.0,0006.61,0002.88,0001.71
2024-03-21 22:33:00,SystemResetWarning,0823.5,5.01,000.00,025.9,025.4,000.0,034.1,027.8,10.0,0000.0,0007.43,0002.89,0001.72
2024-03-21 22:34:00,SystemResetWarning,0823.5,4.99,000.00,025.9,025.4,000.0,034.2,027.8,10.1,0000.0,0007.40,0002.85,0001.72
2024-03-21 22:35:00,SystemResetWarning,0823.5,4.99,000.00,026.0,025.4,000.0,034.2,027.8,09.9,0000.0,0007.52,0002.90,0001.72
2024-03-21 22:36:00,SystemResetWarning,0823.5,5.01,000.00,026.0,025.5,000.0,034.2,027.9,10.2,0000.0,0007.51,0002.94,0001.74
2024-03-21 22:37:00,SystemResetWarning,0823.5,5.01,000.00,026.0,025.5,000.0,034.3,027.9,10.3,0000.0,0007.55,0002.96,0001.73
2024-03-21 22:38:00,SystemResetWarning,0823.5,4.99,000.00,026.1,025.5,000.0,034.3,027.9,10.2,0000.0,0007.55,0002.95,0001.72
2024-03-21 22:39:00,SystemResetWarning,0823.5,5.01,000.00,026.1,025.5,000.0,034.3,028.0,09.9,0000.0,0007.47,0002.93,0001.72
2024-03-21 22:40:00,SystemResetWarning,0823.5,5.00,000.00,026.1,025.6,000.0,034.3,028.0,10.1,0000.0,0007.14,0002.86,0001.72
2024-03-21 22:41:00,SystemResetWarning,0823.5,4.99,000.00,026.1,025.6,000.0,034.4,028.0,10.1,0000.0,0007.38,0002.90,0001.72
2024-03-21 22:42:00,SystemResetWarning,0823.5,5.00,000.00,026.2,025.6,000.0,034.4,028.0,10.1,0000.0,0007.42,0002.91,0001.71
2024-03-21 22:43:00,SystemResetWarning,0823.4,5.01,000.00,026.2,025.6,000.0,034.4,028.0,10.0,0000.0,0007.17,0002.91,0001.70
2024-03-21 22:44:00,SystemResetWarning,0823.4,4.99,000.00,026.1,025.0,000.0,034.5,027.7,09.6,0000.0,0006.35,0002.91,0001.68
2024-03-21 22:45:00,SystemResetWarning,0823.4,5.02,000.00,025.8,022.9,000.0,034.5,026.7,09.5,0000.0,0007.02,0002.96,0001.65
2024-03-21 22:46:00,SystemResetWarning,0823.4,5.01,000.00,025.5,022.7,000.0,034.5,026.4,10.0,0000.0,0008.76,0002.99,0001.63
2024-03-21 22:47:00,SystemResetWarning,0823.4,4.97,000.00,025.4,023.0,000.0,034.3,026.6,09.7,0000.0,0008.92,0002.98,0001.61
2024-03-21 22:48:00,SystemResetWarning,0823.4,5.01,000.00,025.4,023.3,000.0,034.2,026.8,09.6,0000.0,0008.99,0002.97,0001.59
2024-03-21 22:49:00,SystemResetWarning,0823.2,5.01,000.00,025.4,023.6,000.0,034.1,026.9,09.8,0000.0,0009.87,0002.98,0001.58
2024-03-21 22:50:00,SystemResetWarning,0823.4,5.00,000.00,025.4,023.9,000.0,034.1,027.1,09.4,0000.0,0009.99,0003.00,0001.57
2024-03-21 22:51:00,SystemResetWarning,0823.5,5.00,000.00,025.4,024.1,000.0,034.0,027.1,09.3,0000.0,0009.89,0002.97,0001.55
2024-03-21 22:52:00,SystemResetWarning,0823.5,5.00,000.00,025.4,024.3,000.0,034.0,027.2,09.3,0000.0,0009.76,0002.96,0001.52
2024-03-21 22:53:00,SystemResetWarning,0823.4,5.00,000.00,025.5,024.5,000.0,034.0,027.3,09.5,0000.0,0010.13,0002.88,0001.49
2024-03-21 22:54:00,SystemResetWarning,0823.5,4.98,000.00,025.5,024.6,000.0,034.0,027.3,09.1,0000.0,0010.30,0002.86,0001.47
2024-03-21 22:55:00,SystemResetWarning,0823.5,5.00,000.00,025.5,024.7,000.0,034.0,027.4,09.2,0000.0,0010.44,0002.92,0001.47
2024-03-21 22:56:00,SystemResetWarning,0823.7,5.01,000.00,025.6,024.8,000.0,034.0,027.4,09.1,0000.0,0010.23,0002.90,0001.46
2024-03-21 22:57:00,SystemResetWarning,0823.6,5.01,000.00,025.6,024.9,000.0,034.0,027.4,09.4,0000.0,0008.68,0002.84,0001.46
2024-03-21 22:58:00,SystemResetWarning,0823.7,5.00,000.00,025.6,025.0,000.0,034.0,027.5,09.8,0000.0,0008.21,0002.83,0001.45
2024-03-21 22:59:00,SystemResetWarning,0823.6,4.99,000.00,025.7,025.0,000.0,034.0,027.5,09.6,0000.0,0008.17,0002.82,0001.44
